W2DEN Weather Reports


Display with metric or nautical units.
time (UTC)temp
F
wind
direction
speed
MPH
gust
MPH
rain 1hr
in
rain 24hr
in
rain mn
in
humidity
%
barometer
mb
20260506211258 89 158 1.0 2.0 0.00 0.00 0.00 49 1013.3
20260506210218 90 0.0 1.0 0.00 0.00 0.00 41 1013.3
20260506205216 90 0.0 1.0 0.00 0.00 0.00 43 1013.5
20260506204217 90 0.0 0.0 0.00 0.00 0.00 43 1013.5
20260506203216 90 0.0 1.0 0.00 0.00 0.00 44 1013.5
20260506202237 91 158 1.0 2.0 0.00 0.00 0.00 40 1013.6
20260506201216 92 0.0 1.0 0.00 0.00 0.00 40 1013.8
20260506200216 92 68 1.0 2.0 0.00 0.00 0.00 41 1013.8
20260506195236 92 45 1.0 1.0 0.00 0.00 0.00 42 1014.0
20260506194216 91 45 1.0 2.0 0.00 0.00 0.00 40 1014.0
20260506193216 91 45 1.0 2.0 0.00 0.00 0.00 40 1014.0
20260506192256 91 23 1.0 2.0 0.00 0.00 0.00 40 1014.0
20260506191216 90 45 1.0 2.0 0.00 0.00 0.00 41 1014.3
20260506190216 90 23 1.0 2.0 0.00 0.00 0.00 41 1014.5
20260506185216 89 0 1.0 3.0 0.00 0.00 0.00 40 1014.7
20260506184216 90 135 1.0 2.0 0.00 0.00 0.00 42 1014.9
20260506183236 89 158 1.0 2.0 0.00 0.00 0.00 46 1015.0
20260506182216 89 0.0 1.0 0.00 0.00 0.00 44 1015.2
20260506181236 89 23 1.0 2.0 0.00 0.00 0.00 42 1015.2
20260506180217 88 45 1.0 2.0 0.00 0.00 0.00 44 1015.4
20260506175216 87 68 2.0 8.0 0.00 0.00 0.00 46 1015.5
20260506174216 86 23 2.0 3.0 0.00 0.00 0.00 46 1015.7
20260506173216 85 158 1.0 2.0 0.00 0.00 0.00 49 1015.8
20260506172216 85 68 1.0 2.0 0.00 0.00 0.00 49 1016.2
20260506171216 86 0.0 2.0 0.00 0.00 0.00 46 1016.5
20260506170216 85 0.0 1.0 0.00 0.00 0.00 49 1016.7
20260506165216 85 23 1.0 2.0 0.00 0.00 0.00 50 1016.5
20260506164216 85 23 1.0 2.0 0.00 0.00 0.00 50 1016.7
20260506163236 83 23 1.0 1.0 0.00 0.00 0.00 50 1016.8
20260506162216 82 0.0 1.0 0.00 0.00 0.00 57 1016.9
20260506161236 82 0.0 2.0 0.00 0.00 0.00 56 1016.8
20260506160216 81 0.0 1.0 0.00 0.00 0.00 57 1016.9
20260506155216 81 0.0 1.0 0.00 0.00 0.00 60 1017.1
20260506154217 81 23 1.0 1.0 0.00 0.00 0.00 57 1017.0
20260506153216 81 23 1.0 2.0 0.00 0.00 0.00 59 1016.9
20260506152216 80 23 1.0 2.0 0.00 0.00 0.00 58 1017.0
20260506151216 80 23 1.0 2.0 0.00 0.00 0.00 57 1017.0
20260506150216 80 338 1.0 4.0 0.00 0.00 0.00 60 1017.2
20260506145216 79 0.0 0.0 0.00 0.00 0.00 63 1017.3
20260506144216 78 68 1.0 2.0 0.00 0.00 0.00 62 1017.1
20260506143216 77 45 1.0 1.0 0.00 0.00 0.00 66 1017.0
20260506142216 77 0.0 1.0 0.00 0.00 0.00 65 1016.8
20260506141216 77 0.0 1.0 0.00 0.00 0.00 64 1016.7
20260506140216 76 0.0 1.0 0.00 0.00 0.00 64 1016.6
20260506135256 76 23 1.0 2.0 0.00 0.00 0.00 68 1016.7
20260506134216 75 0.0 0.0 0.00 0.00 0.00 69 1016.7
20260506133216 74 180 1.0 1.0 0.00 0.00 0.00 71 1016.5
20260506132216 72 0.0 1.0 0.00 0.00 0.00 73 1016.5
20260506131236 71 0.0 0.0 0.00 0.00 0.00 74 1016.4
20260506130216 71 0.0 1.0 0.00 0.00 0.00 74 1016.3
20260506125216 70 0.0 0.0 0.00 0.00 0.00 78 1016.3
20260506124216 68 0.0 0.0 0.00 0.00 0.00 83 1016.4
20260506123236 67 0.0 1.0 0.00 0.00 0.00 89 1016.4
20260506122216 64 0.0 0.0 0.00 0.00 0.00 96 1016.4
20260506121216 62 0.0 0.0 0.00 0.00 0.00 97 1016.2
20260506120216 58 0.0 0.0 0.00 0.00 0.00 96 1015.9
20260506115216 57 0.0 0.0 0.00 0.00 0.00 96 1015.8
20260506114236 56 0.0 0.0 0.00 0.00 0.00 96 1015.7
20260506113216 56 0.0 0.0 0.00 0.00 0.00 96 1015.8
20260506112216 55 0.0 0.0 0.00 0.00 0.00 96 1015.8
20260506111237 55 0.0 0.0 0.00 0.00 0.00 96 1015.6
20260506110236 55 0.0 0.0 0.00 0.00 0.00 96 1015.5
20260506105216 55 0.0 0.0 0.00 0.00 0.00 95 1015.5
20260506104216 54 0.0 0.0 0.00 0.00 0.00 95 1015.4
20260506103216 54 0.0 0.0 0.00 0.00 0.00 95 1015.3
20260506102216 54 0.0 0.0 0.00 0.00 0.00 95 1015.5
20260506101216 54 0.0 0.0 0.00 0.00 0.00 95 1015.7
20260506100237 54 0.0 0.0 0.00 0.00 0.00 95 1015.5
20260506095236 55 0.0 0.0 0.00 0.00 0.00 95 1015.5
20260506094216 55 0.0 0.0 0.00 0.00 0.00 95 1015.7
20260506093217 55 0.0 0.0 0.00 0.00 0.00 95 1015.7
20260506092216 55 0.0 0.0 0.00 0.00 0.00 95 1015.6
20260506091236 56 0.0 0.0 0.00 0.00 0.00 95 1015.5
20260506090218 56 0.0 0.0 0.00 0.00 0.00 95 1015.4
20260506085238 56 0.0 0.0 0.00 0.00 0.00 95 1015.5
20260506084218 56 0.0 0.0 0.00 0.00 0.00 95 1015.5
20260506083218 56 0.0 0.0 0.00 0.00 0.00 95 1015.5
20260506081218 56 0.0 0.0 0.00 0.00 0.00 95 1015.6
20260506080218 56 0.0 0.0 0.00 0.00 0.00 95 1015.4
20260506073219 56 0.0 0.0 0.00 0.00 0.00 94 1015.4
20260506072218 56 0.0 0.0 0.00 0.00 0.00 94 1015.5
20260506071218 56 0.0 0.0 0.00 0.00 0.00 94 1015.6
20260506070218 56 0.0 0.0 0.00 0.00 0.00 94 1015.7
20260506062219 57 0.0 0.0 0.00 0.00 0.00 93 1015.7
20260506061236 57 0.0 0.0 0.00 0.00 0.00 93 1015.8
20260506060218 57 0.0 0.0 0.00 0.00 0.00 93 1016.1
20260506051238 57 0.0 0.0 0.00 0.00 0.00 92 1016.4
20260506050218 58 0.0 0.0 0.00 0.00 0.00 91 1016.3
20260506044217 58 0.0 0.0 0.00 0.00 0.00 91 1016.4
20260506043217 58 0.0 0.0 0.00 0.00 0.00 90 1016.4
20260506042218 58 0.0 0.0 0.00 0.00 0.00 90 1016.4
20260506041217 58 0.0 0.0 0.00 0.00 0.00 90 1016.6
20260506040237 59 0.0 0.0 0.00 0.00 0.00 89 1016.5
20260506035217 59 0.0 0.0 0.00 0.00 0.00 88 1016.6
20260506034216 59 0.0 0.0 0.00 0.00 0.00 87 1016.6
20260506033218 60 0.0 0.0 0.00 0.00 0.00 87 1016.5
20260506032216 60 0.0 0.0 0.00 0.00 0.00 86 1016.6
20260506031216 60 0.0 0.0 0.00 0.00 0.00 84 1016.7
20260506030216 61 0.0 0.0 0.00 0.00 0.00 83 1016.6
20260506025216 61 0.0 0.0 0.00 0.00 0.00 83 1016.6
20260506024257 62 0.0 0.0 0.00 0.00 0.00 82 1016.5
20260506023216 62 0.0 0.0 0.00 0.00 0.00 81 1016.4
20260506022216 63 0.0 0.0 0.00 0.00 0.00 79 1016.4
20260506021216 63 0.0 0.0 0.00 0.00 0.00 78 1016.2
20260506020236 63 0.0 0.0 0.00 0.00 0.00 77 1016.2
20260506015216 64 0.0 0.0 0.00 0.00 0.00 76 1016.3
20260506014216 64 0.0 0.0 0.00 0.00 0.00 75 1016.2
20260506013216 64 0.0 0.0 0.00 0.00 0.00 75 1016.1
20260506012236 65 0.0 0.0 0.00 0.00 0.00 74 1016.0
20260506011216 65 0.0 0.0 0.00 0.00 0.00 72 1015.9
20260506010216 66 0.0 0.0 0.00 0.00 0.00 71 1016.0
20260506005216 66 0.0 0.0 0.00 0.00 0.00 69 1015.8
20260506004216 67 0.0 0.0 0.00 0.00 0.00 67 1015.7
20260506003216 68 0.0 0.0 0.00 0.00 0.00 66 1015.5
20260506002236 69 0.0 0.0 0.00 0.00 0.00 63 1015.5
20260506001216 70 0.0 0.0 0.00 0.00 0.00 61 1015.4
20260506000216 70 0.0 0.0 0.00 0.00 0.00 60 1015.3
20260505235236 70 0.0 1.0 0.00 0.00 0.00 59 1015.5
20260505234236 71 0.0 1.0 0.00 0.00 0.00 59 1015.5
20260505233216 72 0.0 1.0 0.00 0.00 0.00 59 1015.5
20260505232216 72 0.0 0.0 0.00 0.00 0.00 59 1015.5
20260505231216 73 45 1.0 2.0 0.00 0.00 0.00 59 1015.4
20260505230216 73 0.0 1.0 0.00 0.00 0.00 59 1015.5
20260505225216 74 135 1.0 1.0 0.00 0.00 0.00 58 1015.3
20260505224216 74 135 1.0 2.0 0.00 0.00 0.00 58 1015.5
20260505223236 75 0.0 0.0 0.00 0.00 0.00 58 1015.4
20260505222216 75 158 1.0 2.0 0.00 0.00 0.00 56 1015.4
20260505221216 76 158 1.0 2.0 0.00 0.00 0.00 54 1015.5
20260505220216 76 135 1.0 2.0 0.00 0.00 0.00 55 1015.4
20260505215216 77 0.0 2.0 0.00 0.00 0.00 57 1015.3
20260505214216 78 158 2.0 3.0 0.00 0.00 0.00 53 1015.4
20260505213236 79 113 1.0 4.0 0.00 0.00 0.00 53 1015.4
20260505212216 79 135 2.0 3.0 0.00 0.00 0.00 54 1015.4